[Date Prev][Date Next][Thread Prev][Thread Next] - [Date Index][Thread Index][Author Index]
2 Line ISS Keps 6-5
- Subject: [sarex] 2 Line ISS Keps 6-5
- From: "Dave Larsen PhD" <doc@xxxxxxxxxxx>
- Date: Sat, 5 Jun 2004 05:48:38 -0700
ISS
1 25544U 98067A 04157.41746528 .00015016 00000-0 13361-3 0 9286
2 25544 51.6332 25.7328 0005625 193.7630 168.2143 15.68722358316479
----
Via the sarex mailing list at AMSAT.ORG courtesy of AMSAT-NA.
To unsubscribe, send "unsubscribe sarex" to Majordomo@amsat.org
AMSAT Home